Location: Plainartige
(45.6866°N, 1.7993°E)
Time: 19:07:10
(UTC+00:00)

RS-15 - Pass Details

Date: 30 June 2022
Orbit: 1881 x 2163 km, 64.8° (Epoch: 11 August)

Event Time Altitude Azimuth Distance (km) Brightness Sun altitude
Rises 21:29:38 0° 314° (NW) 5,686 12.2 -13.5°
Reaches altitude 10° 21:33:27 10° 321° (NW) 4,690 11.5 -13.9°
Maximum altitude 21:45:12 45° 32° (NNE) 2,737 9.0 -15.0°
Drops below altitude 10° 21:56:39 10° 103° (ESE) 4,592 9.6 -16.0°
Enters shadow 21:59:25 - 109° (ESE) 5,322 9.9 -16.2°
